Vertical_Velocity
-1 0 1 0 -1 -0 -1 -1 0 -0 -1 -1 1 -0 1 0 -0 0 1 1 0 -0 0 0 -0 -1 -0 -0 0 0 1 1 1 0 -1 0 -0 -1 -1 -1 -2 -1 -1
3 2 -2 -0 0 1 0 -0 -1 -0 -1 -1 -1 0 -0 0 -0 0 1 0 1 -0 -0 0 0 -0 -1 -1 -0 -0 -1 -1 -0 0 0 -0 -0 -0 -0 -1 -2 -1 -2
2 -0 -2 -1 -2 -1 0 -1 -1 -1 -0 -0 -2 -1 -0 0 0 0 1 0 -0 -1 1 -0 -1 -0 -0 -1 -1 -1 0 0 -0 0 0 0 -0 -1 -1 -1 -1 -1 -1
-2 -1 1 -3 -4 -2 -2 -1 -1 -1 -1 -0 1 -2 -2 -1 1 2 1 0 0 0 1 -0 -1 -0 0 0 -0 -1 -1 -0 -1 -1 -0 -1 -1 -1 -1 -1 -1 -1 -1
-4 -2 -2 1 -2 -3 -1 -0 -1 -2 -1 -1 1 1 -1 -1 -0 -0 1 2 1 2 0 0 -1 -1 1 1 -1 0 -0 -0 0 -1 -1 -0 -0 -1 -2 -1 -0 -0 -1
-1 -6 1 -4 -1 -2 -3 -1 -2 -3 -2 -1 -2 0 3 0 1 -2 -1 1 0 2 1 1 0 0 -1 -0 0 -1 1 0 0 0 1 -0 -1 -0 -1 -2 -0 -1 -2
-2 -0 1 -1 -2 -2 -2 -3 -1 -2 -3 -1 -2 -2 1 2 1 -1 -0 1 1 1 0 -0 0 -0 -1 -0 1 -1 -1 -1 -0 -1 -1 -0 -0 -0 -0 0 -1 -2 0
-2 -4 1 1 0 -1 -2 -1 -1 -0 -0 -0 -0 -2 -1 1 1 -0 -0 -0 1 2 1 0 1 0 -1 -1 0 -1 1 -1 1 0 -1 -0 0 0 -1 -1 -0 1 -0
-4 2 -0 -1 -1 0 -2 -1 -0 -1 -3 -2 -3 1 -1 -1 3 -0 1 1 -0 -0 1 1 0 1 1 -0 0 0 1 -0 -1 0 0 -0 -0 -0 1 1 1 0 0
1 1 -1 1 -1 2 -0 -3 -1 0 -2 -3 -1 -0 -0 -1 1 1 1 1 1 0 1 0 0 1 1 1 1 1 -1 1 -1 -0 -1 0 1 0 -0 1 0 -0 -1
5 1 -0 0 -2 -2 -2 -1 -3 -1 -0 -0 0 -2 -0 2 3 -0 1 0 1 1 1 -0 0 1 0 0 1 1 2 -2 1 0 -1 -0 -1 0 -1 0 1 -1 0
2 2 1 0 2 -4 -2 -2 -0 -4 -3 0 0 1 -3 -0 2 3 -0 2 0 1 -0 0 -1 0 0 -0 0 0 2 -2 1 1 0 -0 1 -2 0 -0 -0 0 -1
5 -0 -2 -1 -2 1 -4 1 -0 -1 -1 -2 -2 1 -2 -1 0 2 3 1 1 -0 0 -0 -0 -0 -1 -0 -0 0 0 -1 1 -0 -1 0 0 -0 0 -1 -1 0 -1
7 1 1 -0 -1 1 -5 -2 0 -0 -1 -3 1 0 -1 -1 0 1 3 2 0 0 2 1 0 -1 0 1 0 1 1 -0 1 1 -1 1 -1 -0 1 -0 -1 -1 -1
4 7 3 3 0 -2 -4 -6 0 0 1 -1 -2 -1 -2 -1 0 0 1 3 -0 3 1 1 1 -0 -1 -0 -1 -0 2 1 0 -0 2 -1 2 1 -1 0 -0 -1 -1
-3 3 1 4 0 1 3 -6 -1 -2 0 -1 -3 -1 3 3 2 -2 -1 -1 1 3 2 1 0 0 1 -1 -1 1 2 3 1 -0 1 -1 1 -0 -1 1 -0 -1 -2
2 -3 1 5 -4 5 1 -0 -2 -5 -2 -1 -3 -1 4 8 4 2 -1 5 -0 0 2 2 3 1 1 0 -1 0 0 1 0 1 -0 2 -1 -1 0 -1 -0 -1 -1
1 3 -3 2 4 5 4 2 -1 -2 -3 -0 -6 -0 -4 -6 3 0 2 -4 -1 -1 -2 1 2 1 -1 0 -1 -1 1 2 0 1 -2 1 2 -2 -3 -0 -2 -2 -2
2 1 2 -4 8 0 0 4 0 -0 -3 1 0 5 1 0 -5 -5 32 2 -1 -1 -0 1 1 1 -0 -0 -2 0 -1 0 -2 0 -2 4 2 -2 -3 -1 -2 -1 -2
-2 2 -1 -0 -1 6 -2 -0 1 -1 3 -9 4 3 5 11 -7 6 -6 -6 -2 -1 0 3 3 1 -1 -1 1 1 3 -2 -1 -2 -3 3 0 -2 -2 2 -1 2 0
-4 -2 1 -2 4 -3 0 1 -3 3 -2 -1 0 1 4 -3 8 10 7 10 -2 1 4 -0 -0 -0 -0 0 1 -3 -2 -1 -1 -2 -7 5 -2 -2 1 2 0 -1 -1
2 -1 0 -2 -2 2 -4 3 1 -3 -3 1 -6 -2 6 15 11 -2 -3 4 2 1 0 1 2 1 -1 -2 2 -2 1 -2 -0 -1 -8 -4 3 1 -1 2 0 2 0
1 2 1 -0 2 -0 -3 -2 1 -2 -6 -8 -3 6 10 -2 1 6 1 3 3 -1 -0 -2 -2 2 2 -0 0 -3 -10 1 -1 4 -2 0 -2 -3 -3 -2 -3 -1 -0
6 -1 3 -1 1 -2 -3 -4 -1 -3 -2 -2 4 5 1 -4 -1 12 2 -0 2 2 5 0 -1 7 -1 -1 -11 7 5 4 2 3 -3 -1 3 -0 -2 2 -2 -1 -4
0 3 2 -3 -2 0 -4 -2 -3 0 13 10 1 -1 2 0 -0 2 8 6 3 2 -2 4 3 -3 -2 4 10 -1 -1 -3 -3 -6 2 -3 2 -2 -6 3 -1 2 2
1 11 -1 -2 -2 -2 -1 -3 6 14 12 16 11 5 1 6 4 5 6 6 4 2 -0 3 6 0 12 6 -1 -5 -2 -2 3 -2 -2 -1 -1 -4 -4 -4 -2 -3 -3
Height
5855 5859 5860 5863 5866 5869 5870 5873 5875 5877 5878 5879 5881 5881 5882 5883 5884 5884 5884 5884 5884 5884 5884 5884 5884 5884 5884 5884 5884 5884 5885 5885 5885 5885 5884 5884 5883 5883 5882 5881 5879 5878 5877
5851 5857 5858 5859 5862 5865 5867 5869 5872 5874 5876 5877 5878 5880 5881 5882 5882 5883 5883 5883 5883 5883 5884 5884 5884 5884 5884 5884 5884 5884 5883 5884 5884 5884 5884 5883 5883 5882 5882 5881 5880 5878 5877
5845 5848 5852 5854 5857 5859 5863 5866 5868 5871 5873 5875 5877 5878 5879 5880 5881 5882 5883 5883 5883 5882 5883 5884 5884 5884 5883 5883 5883 5883 5883 5882 5882 5882 5882 5882 5882 5882 5882 5881 5879 5878 5876
5842 5844 5845 5848 5851 5854 5857 5860 5863 5866 5870 5872 5874 5875 5877 5878 5879 5880 5881 5881 5882 5882 5882 5883 5883 5883 5883 5883 5882 5882 5882 5882 5881 5881 5881 5881 5882 5882 5881 5880 5878 5877 5876
5838 5839 5841 5841 5844 5849 5852 5855 5859 5862 5865 5868 5871 5872 5874 5875 5877 5878 5879 5880 5880 5881 5881 5882 5882 5883 5882 5882 5882 5881 5881 5881 5880 5880 5880 5880 5880 5880 5879 5878 5877 5877 5876
5832 5835 5835 5838 5839 5843 5847 5850 5853 5857 5861 5864 5867 5869 5871 5873 5874 5874 5876 5877 5878 5879 5879 5880 5881 5881 5882 5881 5881 5880 5880 5880 5879 5879 5879 5879 5879 5878 5878 5877 5877 5876 5875
5828 5829 5831 5834 5835 5839 5842 5846 5849 5852 5855 5858 5862 5864 5867 5870 5871 5871 5873 5874 5876 5876 5877 5877 5878 5879 5880 5880 5879 5878 5879 5878 5878 5878 5877 5877 5877 5877 5877 5876 5875 5874 5873
5820 5823 5825 5829 5831 5832 5836 5841 5845 5848 5850 5852 5856 5859 5862 5865 5868 5868 5870 5871 5873 5874 5874 5875 5876 5876 5877 5878 5877 5877 5878 5877 5877 5876 5876 5876 5876 5875 5874 5874 5872 5871 5870
5814 5818 5820 5822 5825 5826 5829 5833 5837 5842 5846 5848 5850 5854 5856 5860 5864 5864 5866 5867 5869 5870 5871 5871 5873 5874 5874 5875 5875 5875 5875 5875 5875 5875 5874 5873 5873 5873 5872 5871 5870 5869 5868
5805 5809 5812 5814 5819 5821 5822 5825 5829 5834 5839 5843 5846 5848 5851 5855 5859 5861 5862 5863 5865 5866 5867 5868 5869 5870 5872 5872 5872 5872 5872 5872 5872 5872 5872 5872 5871 5870 5869 5868 5868 5867 5865
5795 5799 5802 5806 5810 5814 5817 5819 5822 5827 5831 5835 5840 5843 5844 5849 5853 5856 5858 5859 5861 5862 5863 5864 5865 5866 5867 5869 5869 5869 5869 5868 5869 5868 5869 5868 5868 5867 5866 5866 5865 5864 5863
5788 5790 5793 5797 5802 5805 5810 5813 5816 5818 5824 5829 5833 5837 5840 5843 5848 5849 5852 5854 5856 5858 5859 5860 5861 5863 5863 5865 5866 5866 5866 5865 5866 5866 5865 5864 5864 5864 5863 5862 5861 5860 5859
5778 5783 5786 5791 5794 5797 5800 5805 5810 5813 5816 5821 5825 5830 5834 5837 5841 5844 5847 5850 5851 5853 5854 5856 5857 5858 5859 5860 5861 5861 5862 5862 5862 5862 5861 5860 5860 5859 5859 5858 5857 5856 5855
5767 5774 5779 5783 5787 5792 5793 5798 5802 5806 5809 5813 5816 5821 5826 5831 5834 5839 5841 5843 5845 5847 5849 5850 5852 5853 5854 5855 5856 5857 5857 5857 5858 5857 5857 5856 5855 5855 5855 5854 5853 5852 5850
5756 5764 5769 5774 5778 5781 5786 5790 5795 5799 5801 5804 5807 5812 5817 5822 5826 5832 5834 5836 5838 5840 5843 5844 5845 5847 5848 5850 5850 5851 5853 5852 5853 5854 5854 5852 5850 5849 5849 5848 5847 5846 5845
5744 5748 5756 5763 5767 5773 5776 5778 5784 5790 5793 5796 5798 5803 5808 5813 5818 5823 5826 5827 5830 5833 5835 5837 5838 5840 5842 5843 5845 5846 5847 5847 5847 5847 5848 5849 5846 5844 5843 5842 5842 5840 5839
5730 5734 5741 5747 5754 5761 5763 5768 5773 5780 5782 5784 5787 5793 5799 5803 5809 5813 5819 5819 5822 5824 5826 5828 5831 5833 5835 5837 5838 5839 5839 5840 5842 5843 5841 5842 5841 5838 5836 5835 5834 5833 5831
5714 5722 5728 5733 5743 5749 5754 5758 5764 5767 5771 5774 5777 5782 5790 5795 5799 5806 5810 5812 5814 5817 5819 5821 5824 5826 5827 5829 5831 5831 5832 5833 5834 5835 5835 5836 5834 5832 5829 5828 5827 5825 5824
5699 5707 5715 5720 5728 5737 5742 5746 5752 5756 5758 5765 5769 5771 5782 5783 5792 5799 5794 5801 5804 5807 5811 5814 5817 5818 5820 5820 5821 5823 5824 5826 5826 5826 5826 5829 5828 5825 5822 5822 5820 5819 5819
5686 5694 5701 5706 5713 5721 5729 5734 5739 5744 5748 5752 5760 5765 5774 5779 5783 5784 5788 5790 5794 5798 5803 5806 5809 5809 5811 5812 5813 5814 5815 5816 5815 5814 5817 5818 5818 5817 5815 5813 5812 5811 5809
5670 5678 5688 5695 5700 5708 5716 5722 5728 5733 5738 5743 5749 5755 5762 5768 5772 5776 5777 5776 5783 5791 5795 5796 5798 5800 5801 5802 5803 5803 5804 5806 5805 5804 5807 5808 5807 5805 5804 5806 5806 5804 5802
5656 5664 5672 5682 5688 5698 5705 5711 5715 5720 5725 5732 5738 5745 5751 5757 5760 5764 5769 5773 5779 5782 5784 5787 5788 5790 5791 5792 5793 5794 5796 5796 5794 5796 5797 5798 5797 5795 5794 5795 5795 5794 5793
5642 5651 5661 5672 5681 5690 5696 5700 5704 5708 5712 5720 5729 5736 5743 5747 5753 5757 5759 5764 5769 5771 5774 5776 5777 5779 5781 5782 5784 5787 5786 5788 5787 5787 5788 5788 5787 5787 5785 5786 5786 5785 5784
5631 5642 5653 5665 5673 5682 5686 5691 5696 5702 5709 5713 5721 5728 5733 5738 5742 5742 5747 5754 5758 5762 5764 5764 5766 5768 5769 5772 5777 5778 5779 5781 5781 5782 5780 5778 5778 5780 5777 5776 5776 5776 5774
5630 5640 5648 5657 5666 5676 5682 5686 5688 5696 5707 5712 5716 5722 5727 5733 5737 5737 5741 5745 5751 5754 5756 5759 5761 5764 5765 5767 5770 5771 5768 5770 5770 5770 5773 5771 5769 5769 5767 5767 5767 5767 5766
5630 5638 5647 5656 5664 5672 5677 5683 5689 5696 5704 5708 5712 5717 5723 5728 5730 5734 5738 5742 5746 5747 5750 5752 5754 5758 5760 5762 5761 5761 5758 5757 5758 5760 5760 5761 5761 5759 5758 5758 5758 5758 5757